Theta_e
349 350 350 350 349 348 348 348 347 347 347 347 346 345 344 345 344 344 344 344 343 339 339 341 340 339 339 339 340 339 337 337 339 340 339 340 339 337 335 335 335 336 339 340 339 339 340 339 339 339 338 337 337 336 337 336 336 336 335 335 335 334 333 332 332 332 333 333 333 334 334 334 334 334 333 333 332 331 331 331 332 333 334 334 335
350 350 350 350 350 349 349 349 347 346 347 346 345 345 344 344 343 342 343 344 339 336 340 340 339 338 339 339 339 340 338 337 339 339 339 339 339 337 336 337 337 335 337 341 340 338 339 339 339 339 339 339 338 338 337 337 336 336 336 336 336 335 335 333 332 332 332 332 332 333 334 334 334 334 334 333 333 332 332 332 332 332 333 333 332
350 350 350 350 350 350 350 349 347 345 345 346 345 345 344 343 342 342 344 342 337 338 341 340 338 338 339 339 339 339 338 337 338 338 337 339 339 338 338 338 338 336 335 339 341 339 338 338 338 338 339 340 339 339 339 338 337 337 337 336 336 336 335 335 334 333 333 331 331 331 332 333 334 335 334 334 334 334 333 333 333 333 333 332 332
349 349 348 349 350 350 350 348 345 345 345 346 345 345 344 344 342 342 344 341 338 340 340 339 338 338 338 339 339 338 338 338 339 338 336 338 339 339 339 338 338 337 334 336 340 341 340 339 338 338 338 339 339 339 340 339 339 338 338 338 337 337 336 336 336 335 334 334 332 331 331 331 332 332 333 334 334 334 334 334 334 334 333 333 332
348 348 347 348 348 348 347 344 343 344 345 345 345 345 344 344 343 343 344 342 339 339 338 336 337 337 337 338 338 337 339 339 338 338 337 338 339 339 339 338 338 337 335 334 337 340 341 340 338 338 338 338 339 339 339 340 339 339 339 339 339 338 337 336 336 336 335 335 335 334 333 332 331 331 331 332 332 333 334 334 334 334 334 334 334
348 347 347 347 346 345 343 341 342 344 344 345 345 345 345 344 344 344 344 343 341 339 338 336 336 337 336 337 338 337 339 339 337 338 339 338 339 339 339 338 338 338 336 334 334 338 340 341 340 339 338 338 338 340 340 339 339 339 339 339 339 339 339 338 338 338 337 337 336 336 335 335 334 333 331 331 330 331 331 332 332 333 333 334 334
347 347 346 345 344 343 342 340 341 341 343 344 345 346 346 345 344 344 344 344 342 341 339 337 337 338 337 337 338 338 339 338 338 339 339 339 338 338 339 339 339 339 338 337 336 336 337 339 339 340 340 339 339 340 341 340 339 339 339 338 338 338 339 340 340 340 339 338 338 337 337 337 337 336 335 334 332 331 330 330 330 330 331 332 333
349 347 345 343 343 343 342 341 340 341 343 345 346 347 347 345 345 345 345 344 343 341 339 338 337 337 338 337 337 339 338 337 338 339 339 339 339 339 339 339 339 340 339 338 337 337 337 337 337 337 338 339 340 341 341 341 341 340 339 339 339 338 338 339 340 340 340 339 339 338 338 338 338 337 337 337 336 335 333 332 331 330 329 330 330
350 348 344 342 343 344 343 342 341 342 344 346 346 346 346 345 345 346 345 345 343 340 339 340 338 337 338 337 336 339 338 337 338 338 339 339 339 340 339 338 338 339 341 340 338 338 339 339 339 337 336 335 336 339 340 340 340 340 340 339 339 338 338 338 339 339 340 340 340 339 339 338 338 338 338 338 337 338 337 336 335 334 332 331 330
349 347 343 342 344 345 344 343 342 342 344 346 346 345 346 345 346 346 345 345 342 338 339 339 338 338 338 337 338 339 337 335 337 339 339 339 339 340 339 337 335 336 338 340 340 340 340 340 339 339 338 336 334 335 338 338 339 339 339 339 339 339 338 338 338 338 339 340 340 340 340 339 339 339 338 338 338 339 339 338 338 338 337 336 334
351 348 345 343 345 346 345 344 343 344 345 346 346 346 346 346 346 346 346 346 343 339 337 335 337 338 337 338 339 339 335 332 336 339 339 339 340 339 339 337 335 334 333 334 337 338 338 339 339 339 339 338 335 334 335 336 337 337 338 338 338 339 339 339 339 339 339 339 340 339 340 340 339 339 338 338 338 339 338 338 338 339 338 338 337
351 350 349 347 347 347 346 344 344 345 345 345 345 345 346 346 346 346 345 343 337 333 331 331 334 335 336 338 337 335 332 330 335 338 338 339 339 339 339 336 335 334 332 331 332 332 333 336 338 337 337 338 338 337 336 335 336 337 337 338 339 339 340 340 339 340 340 340 340 340 340 340 339 339 338 338 339 339 338 339 339 339 339 338 338
350 351 351 349 349 348 346 345 345 345 345 345 344 345 347 345 343 341 336 330 328 330 333 334 334 335 337 338 335 334 333 332 336 338 338 338 338 339 337 336 334 333 332 330 329 328 327 330 333 332 331 335 337 337 337 336 336 336 337 338 339 339 338 338 338 339 339 339 339 340 340 340 340 340 339 339 340 340 339 340 340 340 340 340 339
350 351 351 350 350 348 346 345 346 346 345 344 344 345 344 340 338 333 327 328 333 336 338 337 335 336 338 336 334 336 336 335 337 339 338 338 338 337 335 333 331 329 329 328 327 327 324 325 327 326 327 330 332 332 334 337 336 335 334 334 333 333 333 333 335 335 334 334 335 336 337 338 340 340 340 340 340 340 340 340 340 340 340 340 340
351 352 352 351 348 346 346 346 346 347 344 343 344 342 338 334 332 328 328 335 338 338 339 338 337 337 337 335 335 336 336 337 338 338 338 338 337 334 331 330 328 326 327 327 327 326 323 322 321 321 322 324 325 327 331 335 334 331 328 326 325 325 325 326 326 326 326 327 329 331 332 334 336 337 338 339 340 340 340 340 340 341 340 340 341
352 352 352 351 347 345 346 346 347 346 343 343 342 337 333 329 327 328 333 338 338 337 338 336 337 338 336 335 336 336 338 338 335 336 337 337 334 331 329 328 326 325 326 325 325 323 322 322 321 320 320 319 320 322 324 326 324 323 321 320 320 320 319 319 319 319 319 320 321 322 323 325 328 331 334 336 337 338 339 340 341 340 341 341 341
351 352 352 351 348 346 345 346 345 344 342 341 337 333 330 325 324 330 335 338 338 338 335 332 335 337 335 335 336 336 338 337 334 334 335 334 331 329 328 328 326 326 326 325 324 324 324 325 326 325 325 323 321 318 317 317 317 317 317 316 316 316 316 316 316 316 316 317 317 316 317 318 319 321 323 326 328 331 334 337 338 339 340 340 341
350 350 350 349 348 347 345 344 342 341 339 337 334 330 325 325 329 332 334 337 338 337 335 333 335 335 333 335 335 335 337 336 333 333 333 331 329 329 329 327 327 327 327 327 327 327 327 327 328 328 328 326 324 320 318 317 316 316 316 317 318 318 318 317 316 316 316 316 315 315 315 315 315 315 316 317 318 320 323 326 330 333 336 338 340
350 349 348 347 348 347 344 341 339 338 335 333 332 325 323 330 333 332 332 335 338 337 335 334 334 332 329 333 334 334 337 336 334 332 331 330 329 330 330 328 328 327 327 328 328 328 328 329 329 329 329 326 325 325 323 321 319 319 320 322 321 321 321 320 319 319 319 318 317 316 316 315 315 315 315 315 315 315 316 317 318 321 325 329 333
350 349 347 345 346 345 341 338 337 335 332 333 331 325 326 333 334 333 333 335 337 336 334 333 334 330 327 330 332 334 337 335 335 334 331 330 330 330 330 328 328 328 328 328 329 328 329 330 330 330 330 328 327 327 327 326 325 324 324 324 322 322 322 321 321 321 321 320 319 318 317 316 316 315 315 315 315 315 316 316 316 316 316 318 321
349 348 346 345 343 341 339 338 336 333 332 331 328 327 331 333 332 333 333 335 337 336 334 334 334 330 327 328 330 333 337 335 334 334 332 331 331 331 330 328 328 329 328 329 329 329 331 331 331 331 331 330 329 329 328 329 328 328 327 326 325 324 323 322 322 322 322 322 321 319 318 317 316 316 315 315 315 316 316 317 317 317 316 316 315
348 346 345 345 342 339 339 338 335 333 332 328 325 328 332 332 332 334 333 333 334 334 335 334 332 332 330 330 330 332 335 334 333 333 333 331 331 330 329 328 329 329 330 330 330 331 332 332 332 331 331 331 331 330 329 329 329 329 329 328 328 327 326 325 323 322 322 322 322 320 317 315 315 315 315 316 317 317 318 318 319 319 318 317 317
346 345 344 344 342 339 339 338 334 333 333 331 329 328 328 330 333 336 335 333 331 331 333 333 331 333 333 331 330 330 331 333 332 332 331 331 331 330 330 330 330 330 331 332 332 332 332 332 332 332 332 331 331 330 330 330 330 330 329 329 329 328 328 327 325 323 322 322 322 320 318 316 315 314 314 315 317 318 318 318 318 319 319 318 318
347 346 345 343 341 339 339 337 334 333 333 334 334 329 327 329 332 334 332 331 331 329 329 330 329 331 331 332 332 330 329 331 331 330 330 330 331 330 331 332 332 331 332 333 333 332 333 332 332 332 332 331 331 330 330 330 330 329 329 329 328 328 328 327 325 324 322 322 322 321 319 318 317 316 315 315 315 316 316 315 315 317 318 318 318
346 346 345 343 339 337 338 335 332 333 333 335 334 328 326 330 332 333 330 328 327 327 326 327 328 328 329 330 332 332 330 331 332 332 331 331 331 331 331 332 331 331 332 333 333 333 333 332 332 332 331 331 331 330 330 330 330 329 329 328 327 326 326 325 324 324 323 322 321 321 320 320 319 318 317 316 316 315 314 314 314 314 315 316 316
343 342 342 341 337 336 337 333 330 332 335 335 331 325 325 329 331 333 333 329 326 325 327 327 327 327 328 328 331 332 332 332 333 332 331 331 332 331 331 331 330 330 331 332 333 333 333 332 332 332 332 332 331 331 330 330 330 330 329 328 326 325 324 323 323 323 323 322 321 320 320 319 320 319 319 318 318 318 317 316 316 315 315 315 315
341 340 340 339 336 336 338 334 330 331 333 334 330 325 325 328 328 330 331 330 326 324 326 327 325 325 328 329 331 332 333 332 333 332 332 331 331 331 330 330 330 330 331 331 331 332 332 332 332 331 331 331 331 331 330 330 330 330 328 327 325 325 324 323 323 324 325 324 322 320 319 319 319 319 319 319 319 319 319 319 319 318 318 317 316
342 341 341 338 336 337 338 334 330 330 332 333 329 326 326 327 325 326 328 327 323 321 322 325 324 324 327 329 331 333 334 333 333 332 332 332 331 331 331 330 330 331 331 330 329 330 331 331 332 331 330 330 331 331 331 331 330 328 326 324 324 323 323 323 323 324 325 326 325 323 321 320 319 319 319 319 319 319 319 320 320 319 319 319 318
342 342 341 338 336 337 337 334 331 330 331 332 330 326 326 325 322 323 325 323 320 318 319 321 322 324 325 327 331 334 334 334 334 332 332 332 332 332 331 331 330 330 329 329 329 330 330 331 331 331 330 330 331 331 330 329 327 325 324 323 322 322 323 323 324 324 324 325 325 325 323 321 320 320 320 320 320 319 319 320 320 319 319 319 319
343 342 341 338 336 337 338 337 333 330 330 331 329 325 324 323 320 320 323 322 319 317 318 319 321 323 323 324 328 333 335 335 334 333 333 333 332 332 332 331 329 327 328 328 328 328 329 330 330 329 329 330 330 329 327 325 323 323 323 323 323 323 323 323 323 324 325 325 325 324 324 322 321 321 321 321 321 321 320 321 321 321 319 318 319
344 343 342 339 335 336 339 339 335 331 330 329 326 323 321 321 319 318 322 322 319 317 317 318 319 321 322 322 325 330 333 334 333 332 332 333 333 333 332 332 329 327 327 327 325 324 325 327 328 326 326 327 328 326 324 323 323 323 323 323 322 322 321 321 321 322 324 325 325 325 324 323 323 323 323 323 324 323 322 322 323 323 321 321 321
344 343 342 339 334 335 338 339 335 331 330 329 323 320 319 319 319 319 320 321 320 318 317 317 319 319 320 321 323 327 331 332 332 332 332 332 332 332 332 330 328 327 327 325 323 323 324 325 325 324 323 324 324 324 324 324 325 325 324 323 322 320 319 319 319 320 321 323 324 325 324 324 324 324 324 325 325 325 325 324 324 324 323 323 323
344 343 341 338 334 333 336 339 336 330 331 330 322 319 319 318 318 319 319 319 319 318 318 317 318 319 319 319 322 326 329 331 333 333 332 331 331 331 330 329 327 327 326 324 324 324 324 324 322 323 324 324 324 324 325 326 326 326 326 325 323 321 320 318 318 319 320 321 323 323 324 324 324 325 325 325 326 326 326 325 325 324 323 322 322
343 343 340 337 335 334 336 338 336 331 331 331 325 320 319 318 319 319 319 319 320 319 318 318 318 318 319 318 320 325 328 331 333 333 331 329 329 329 328 327 326 326 325 326 326 324 323 323 323 325 325 326 326 326 327 327 327 327 327 326 323 321 320 319 319 319 319 320 321 322 322 322 323 323 323 324 325 325 326 325 325 324 323 322 321
342 342 340 337 336 337 337 338 337 332 331 333 331 325 320 318 318 319 319 319 320 321 320 319 318 318 320 320 319 322 326 329 332 333 332 330 330 329 326 325 326 326 326 327 327 326 324 324 324 326 327 327 328 328 328 328 328 328 328 327 324 321 320 319 319 319 319 320 321 322 322 322 322 322 322 322 323 324 325 325 324 323 322 320 319
341 341 339 337 337 338 339 339 338 336 334 335 334 331 327 322 319 319 319 319 320 321 320 320 319 318 321 322 321 323 327 329 332 334 334 333 333 330 326 325 326 325 326 328 328 327 326 325 325 326 327 328 328 328 328 328 328 328 328 328 326 323 321 320 319 319 319 321 322 323 323 323 323 323 323 323 324 324 324 324 323 321 319 318 317
341 341 340 338 337 338 338 338 338 337 337 337 337 336 335 330 324 319 319 320 320 320 321 320 319 319 320 322 323 324 327 329 331 333 333 333 332 328 325 326 327 325 326 327 328 328 329 327 326 327 328 328 327 327 328 328 329 329 329 329 328 326 324 321 320 320 321 322 323 324 324 324 323 323 324 324 325 324 324 322 319 317 315 314 315
340 341 340 338 337 337 338 338 338 338 338 339 339 339 339 337 332 325 320 319 320 320 320 320 320 319 320 322 323 324 325 327 328 330 331 329 326 324 324 326 327 327 328 328 329 331 331 329 327 327 327 327 328 328 327 328 330 330 330 329 328 327 325 322 320 320 322 322 322 324 325 325 324 323 323 323 323 322 320 317 314 313 312 312 312
341 340 339 338 336 337 338 339 339 339 339 340 340 340 339 339 337 332 325 320 319 320 320 319 320 319 320 321 322 323 323 324 325 328 329 328 325 325 326 328 328 329 331 331 332 332 330 328 327 326 327 327 328 328 327 327 328 329 329 329 328 325 322 320 319 319 321 322 322 323 324 325 325 324 322 321 319 318 315 313 312 312 312 313 313
341 339 338 337 337 338 338 339 340 340 341 340 339 339 339 339 338 338 333 325 320 319 320 320 320 319 320 321 323 324 324 324 325 327 329 329 327 326 328 330 331 331 332 332 331 330 329 328 327 326 327 328 329 329 327 326 326 327 328 329 327 323 319 318 318 319 321 321 321 321 322 323 323 322 319 317 316 315 314 313 313 313 313 314 315
342 341 339 339 339 339 338 339 341 342 342 341 340 339 339 339 339 339 337 332 325 320 319 320 320 321 320 322 324 326 326 326 328 330 330 328 326 327 329 332 334 334 333 331 330 329 329 328 328 327 328 329 329 329 327 327 326 326 327 328 326 322 321 320 318 318 321 321 321 320 320 320 319 318 317 316 316 316 316 316 316 315 315 315 316
344 343 342 341 340 339 337 339 341 342 342 341 340 340 341 341 341 341 340 338 333 326 321 319 320 322 322 322 323 325 326 326 328 331 330 326 324 329 333 334 334 333 332 332 331 329 329 329 329 329 329 329 329 328 327 327 326 326 327 327 325 323 323 323 320 318 320 321 320 319 318 318 317 317 318 317 317 317 316 316 316 316 316 316 316
347 346 345 343 340 338 338 340 341 341 340 339 339 341 342 343 344 344 342 341 339 334 327 321 320 321 322 323 322 323 324 325 327 329 330 327 326 331 335 335 334 333 332 332 331 329 330 330 330 331 331 330 329 327 326 327 326 326 326 326 325 325 326 325 323 320 319 319 319 318 318 318 318 318 318 317 317 316 316 315 316 316 317 317 317
348 348 347 344 341 339 340 341 342 341 339 338 339 342 344 345 345 345 344 343 342 340 335 329 322 320 322 324 323 323 323 325 327 328 328 329 331 334 335 335 334 333 333 333 332 331 330 330 331 331 331 330 328 325 325 327 326 326 325 324 325 326 326 326 325 323 319 318 318 318 318 318 318 319 318 317 317 315 314 314 315 317 317 317 317
348 348 346 344 343 343 343 343 342 342 340 340 342 344 345 346 346 347 346 345 344 342 340 335 328 322 321 322 323 324 322 324 327 328 327 330 334 335 336 335 334 334 333 333 332 330 327 327 330 331 330 329 327 325 326 327 326 324 323 323 324 325 326 325 325 323 320 318 318 318 318 319 319 319 318 317 317 315 312 313 314 315 316 316 316
349 347 346 345 345 344 344 343 344 343 342 343 344 346 347 348 348 348 347 346 345 343 341 339 334 327 322 321 322 324 324 323 325 327 328 330 333 335 335 335 334 334 333 332 331 327 325 326 328 329 329 328 326 326 326 326 325 323 323 324 324 325 325 325 323 322 319 318 319 319 320 320 319 319 318 318 317 315 313 313 314 315 316 316 316
350 347 345 345 345 344 344 345 345 345 344 345 347 348 349 350 350 350 349 347 346 344 342 340 338 333 329 324 321 323 326 324 323 328 330 331 334 335 334 334 334 333 332 331 328 325 323 323 325 327 328 327 326 326 326 325 323 323 324 325 325 324 324 323 321 320 319 319 320 320 320 319 318 318 318 318 318 316 316 316 316 315 313 311 311
351 350 348 346 346 345 345 347 347 346 347 350 351 351 351 352 351 350 349 347 346 345 343 341 340 337 334 329 323 325 328 326 326 331 333 334 335 335 334 333 332 331 331 329 325 322 321 322 325 328 328 327 326 326 325 324 324 324 325 325 324 322 322 321 320 319 319 319 319 320 320 319 318 319 319 319 318 317 316 314 311 308 308 309 311
353 352 350 349 348 348 349 349 348 349 352 353 353 353 353 353 352 351 349 348 346 345 344 342 341 339 336 331 327 328 329 327 328 334 336 336 336 333 332 330 328 328 329 326 322 319 320 323 327 329 329 327 326 325 324 325 325 326 325 323 321 320 320 320 320 320 320 319 318 318 319 318 318 318 318 317 315 312 309 307 306 308 312 315 316
353 351 350 351 351 352 352 352 352 353 354 355 355 355 354 353 352 351 349 348 346 345 344 343 341 340 337 332 329 329 330 329 331 336 338 337 335 333 332 330 327 326 326 324 321 319 320 325 329 330 329 327 326 325 325 326 326 325 322 320 320 319 320 320 320 320 319 318 318 317 317 316 316 315 312 310 308 305 305 308 311 314 316 317 317
352 352 352 354 354 354 354 355 356 356 356 356 355 355 355 353 352 350 348 347 346 345 344 343 341 340 338 334 330 329 330 332 335 337 338 336 334 333 333 330 327 326 325 323 321 319 320 326 330 329 328 328 326 324 324 324 324 321 319 319 319 319 319 318 318 317 317 317 317 315 314 313 312 308 306 307 307 306 308 313 315 315 316 316 316
Wind_Speed
6 5 5 4 2 3 2 3 3 3 4 4 3 3 3 1 1 3 3 2 1 5 6 4 3 4 5 5 5 3 2 3 2 0 1 2 4 6 7 6 4 3 4 5 6 8 9 9 9 10 10 10 10 11 11 11 11 11 10 10 10 10 10 10 10 10 10 10 10 10 10 10 9 9 8 8 7 7 8 9 9 8 7 6 6
6 5 6 5 4 3 3 4 5 5 6 6 5 4 3 2 2 3 2 1 5 8 8 5 6 5 4 3 2 1 1 2 2 1 2 2 2 5 7 6 6 4 3 5 6 7 8 9 10 10 10 10 10 11 11 11 11 11 11 10 10 10 10 10 10 10 10 10 11 11 11 11 11 11 10 10 9 9 9 9 9 8 8 7 7
7 7 6 6 6 5 6 6 7 7 6 6 6 4 3 3 3 2 1 5 10 10 8 7 8 5 3 2 1 1 0 3 2 0 2 5 4 4 5 5 5 5 5 6 7 7 8 9 9 10 11 10 10 11 11 11 11 11 11 11 10 10 10 10 11 10 10 10 11 11 11 11 12 12 11 11 11 10 10 10 10 9 9 9 8
9 9 7 7 7 7 7 8 8 7 6 6 6 5 4 3 3 2 2 9 12 10 7 7 7 5 3 2 4 1 5 4 3 2 5 7 6 5 4 2 2 3 5 6 7 8 8 9 9 9 10 11 11 11 11 12 12 12 12 12 11 11 11 11 11 11 11 11 11 11 11 12 12 12 12 12 12 12 12 12 11 11 10 10 9
11 10 9 8 8 8 8 8 8 8 7 7 6 5 4 4 4 3 5 11 12 9 6 4 3 3 4 5 5 5 8 5 2 3 5 7 7 6 5 3 1 1 3 5 6 8 9 9 8 8 9 10 11 12 12 12 13 13 13 13 12 12 12 12 12 12 11 12 12 12 12 13 13 13 13 13 13 13 13 13 12 12 12 11 10
13 12 11 10 10 9 9 8 8 8 7 7 6 5 5 5 5 5 7 11 11 9 6 3 4 1 2 5 6 7 7 4 2 3 4 5 5 4 4 3 2 2 2 4 5 6 8 9 9 9 9 9 10 11 11 12 13 13 13 14 13 12 13 13 13 13 13 13 13 13 14 13 13 13 13 13 14 14 14 14 14 13 13 13 12
14 14 13 13 12 11 9 9 8 7 7 7 6 6 6 6 6 5 9 11 10 9 6 4 6 5 4 5 6 6 5 3 3 3 2 3 4 4 3 2 3 3 3 3 3 4 6 7 8 9 10 9 10 11 11 12 12 13 13 14 14 13 14 15 15 14 14 14 13 14 14 15 15 14 14 14 14 14 14 14 14 14 14 14 13
14 14 14 14 13 12 10 9 9 7 7 7 7 6 7 7 6 7 11 12 10 9 8 7 5 5 6 5 5 4 2 3 3 2 2 3 5 5 5 4 3 3 3 3 3 3 4 6 7 9 10 10 11 11 11 12 12 12 13 13 14 15 15 16 16 15 14 15 15 15 15 16 16 16 15 15 15 15 14 14 14 14 14 14 14
13 14 14 14 13 12 11 10 8 7 7 7 7 7 8 8 7 7 10 11 10 10 10 8 5 5 6 5 5 3 2 4 3 3 3 3 4 5 6 6 5 4 3 3 3 3 4 5 6 8 9 10 11 11 11 11 11 11 12 13 13 14 15 16 16 15 15 15 16 17 17 18 17 17 17 17 17 16 15 15 15 14 14 14 14
12 13 14 14 13 13 12 11 9 7 7 7 7 8 9 8 7 7 10 11 11 11 11 8 5 6 6 6 5 3 3 4 6 5 4 4 4 4 5 6 6 5 3 2 3 4 4 4 4 6 8 9 10 11 11 11 11 10 11 12 14 14 14 15 15 15 16 16 16 17 17 18 18 18 18 19 18 17 16 16 16 16 15 15 15
10 11 12 12 13 13 13 12 9 7 7 8 9 9 9 8 8 8 10 11 12 12 12 10 9 8 6 6 5 4 5 4 8 8 5 6 5 5 5 5 4 4 4 3 2 3 4 3 4 5 6 7 9 10 11 11 11 10 10 10 12 13 13 13 13 14 16 16 16 17 17 17 18 18 18 19 19 18 17 18 18 17 17 17 17
10 10 11 11 12 13 13 11 9 7 8 9 9 9 8 8 8 9 9 10 10 11 10 10 12 11 7 6 5 5 6 5 9 9 7 8 7 6 7 5 2 1 2 3 3 3 3 4 5 5 5 5 6 7 8 9 10 10 9 9 9 9 11 10 10 12 13 15 15 15 16 16 17 17 18 19 19 19 19 19 19 19 19 19 19
11 11 12 12 13 13 13 11 9 8 9 10 9 9 9 9 8 9 8 8 8 8 7 7 11 12 8 7 6 6 6 8 12 9 7 10 11 9 8 4 1 1 2 1 2 2 2 4 5 5 5 5 5 6 6 7 7 7 6 6 6 7 8 7 8 10 11 12 12 12 14 15 16 17 18 19 18 18 19 20 20 21 20 21 21
13 12 13 14 14 13 13 11 10 10 11 10 9 10 10 9 8 8 7 9 9 8 7 6 10 11 9 8 8 7 8 10 12 7 6 12 14 10 7 4 2 2 2 1 1 2 2 3 4 4 4 5 5 5 5 6 5 5 4 4 5 6 6 6 7 8 9 9 10 10 11 12 13 14 16 18 18 18 19 20 20 21 21 22 22
16 15 15 15 14 13 13 12 11 12 12 11 11 11 10 9 8 8 11 12 10 9 7 7 9 10 11 10 9 8 8 7 8 6 7 13 14 8 6 4 1 1 1 1 2 1 2 3 2 2 2 3 4 5 5 6 5 5 4 4 4 5 5 6 6 7 8 8 9 10 11 11 11 12 13 14 14 15 17 19 20 20 21 22 21
17 16 16 15 14 13 13 13 13 13 12 12 12 11 9 9 9 12 15 13 11 10 9 8 9 11 12 10 9 8 6 4 6 9 12 15 12 6 5 3 0 0 2 2 2 1 3 5 6 4 2 1 2 4 5 5 6 6 5 5 5 5 5 5 6 6 6 7 7 8 9 10 11 11 12 13 13 13 14 15 16 18 20 19 18
17 17 17 16 15 14 13 13 13 13 13 13 11 10 9 9 12 15 16 13 11 11 10 10 10 11 11 10 9 7 6 7 10 14 16 15 10 5 3 2 1 1 1 1 1 2 4 6 7 7 6 3 0 2 4 4 5 5 4 3 2 2 3 4 5 6 6 7 7 7 7 7 8 8 10 11 12 13 13 14 14 15 16 16 15
17 18 17 17 16 16 14 13 12 13 13 12 10 10 10 11 12 14 15 13 12 11 11 11 10 10 11 11 10 8 8 11 14 17 17 13 11 8 4 4 3 2 2 3 2 2 3 5 7 9 9 5 1 2 2 3 3 3 2 2 3 3 3 3 4 5 6 7 8 8 8 7 7 7 7 8 9 10 11 12 13 14 15 15 13
18 18 17 17 17 16 14 13 12 13 13 12 11 11 11 12 11 13 14 13 13 13 12 11 10 10 11 12 12 10 10 12 13 16 17 14 13 11 7 6 5 2 3 3 2 0 3 5 6 9 10 6 4 6 6 5 4 3 4 4 4 4 4 4 4 5 6 7 8 9 9 9 9 9 9 8 8 8 8 9 10 12 13 14 14
19 18 17 17 17 16 14 13 13 13 11 11 12 11 13 14 12 12 14 14 14 13 12 11 10 10 12 13 13 13 12 12 12 13 15 16 16 13 10 9 8 4 3 3 3 0 3 5 6 7 8 6 4 6 7 6 5 4 4 4 4 5 5 5 6 7 7 7 7 8 9 10 11 11 11 10 9 9 9 9 9 9 10 11 12
20 19 18 17 16 16 15 14 13 12 10 10 12 13 14 15 12 11 12 14 15 14 12 11 10 10 12 14 15 16 15 13 12 12 12 15 16 15 12 11 11 7 5 5 4 1 3 4 5 6 7 6 5 5 5 5 5 4 4 4 4 5 5 6 8 8 7 7 8 8 8 9 10 11 11 11 11 10 10 10 10 10 10 10 10
20 19 19 18 17 17 16 14 12 11 11 11 14 15 14 13 12 11 11 12 15 15 14 13 11 10 12 14 15 17 17 16 15 14 13 12 14 15 14 12 12 10 7 6 4 2 2 2 4 7 7 7 7 6 6 6 7 6 7 7 7 8 8 8 10 10 9 9 9 9 9 9 9 9 10 11 11 11 11 10 10 11 11 11 11
21 19 18 18 18 18 16 13 12 12 12 12 13 14 13 12 11 12 12 12 14 15 16 15 13 12 12 14 15 15 16 17 17 17 15 12 12 15 15 12 11 10 8 6 5 4 3 5 6 8 9 8 8 7 7 7 8 8 9 10 11 12 11 11 12 12 10 10 10 10 10 10 9 9 9 10 11 12 12 12 11 11 11 11 12
22 20 18 18 19 18 16 14 14 14 13 13 13 13 13 12 11 11 12 13 15 17 18 17 16 14 13 14 16 15 14 14 14 14 14 13 12 13 14 13 11 10 10 8 7 6 6 8 9 10 9 9 8 8 7 8 8 9 10 12 12 13 13 13 13 13 11 10 10 10 10 10 10 9 8 8 9 10 12 12 12 11 11 11 12
24 23 21 19 19 18 16 16 15 14 14 14 13 13 14 14 12 11 12 13 16 18 19 19 17 15 13 14 17 17 14 14 14 12 13 14 13 12 13 14 13 12 12 11 10 9 8 8 9 9 9 9 8 8 8 8 8 9 11 12 13 13 13 13 14 14 13 11 11 11 10 10 9 9 9 9 9 9 10 11 12 12 11 11 12
25 24 22 20 19 18 17 16 15 15 14 14 15 14 15 15 14 14 13 13 15 17 18 19 18 16 15 16 18 18 17 17 16 14 14 15 16 14 14 14 13 12 13 13 12 11 10 8 7 8 10 10 9 9 8 8 9 10 11 12 12 12 11 12 14 14 13 12 12 12 11 11 10 10 10 10 10 10 11 11 12 13 13 13 13
25 24 23 20 19 18 17 17 17 16 15 15 16 16 16 16 16 16 15 14 16 18 18 19 19 19 19 18 19 19 18 18 17 16 16 17 17 16 15 14 13 12 12 12 12 12 11 10 9 9 10 10 9 9 8 8 10 11 13 14 14 13 12 13 14 15 15 14 13 12 12 12 11 12 12 12 12 13 13 13 13 13 14 15 16
26 25 24 22 20 19 18 18 18 18 17 17 18 18 17 18 17 17 16 15 16 18 18 19 19 21 22 21 21 21 19 18 17 16 17 17 16 16 15 14 13 12 12 13 13 13 13 12 12 11 9 9 8 7 8 9 11 13 14 15 14 14 13 14 15 15 16 16 16 15 14 13 12 13 14 14 15 15 15 16 16 15 15 16 17
27 26 25 23 22 21 20 19 19 18 18 18 19 19 18 19 19 18 17 16 16 17 19 20 21 22 23 23 24 23 20 18 18 17 18 18 17 16 16 15 14 13 13 14 13 13 13 13 13 12 10 8 8 8 9 11 13 14 15 15 14 14 14 14 15 15 15 16 17 17 17 16 15 15 16 16 16 16 16 17 17 18 17 16 16
28 27 26 25 25 24 22 21 20 19 18 19 21 20 20 20 20 20 18 17 16 17 19 21 22 23 23 24 25 24 22 20 19 18 19 19 19 18 17 16 15 14 13 14 13 12 12 12 13 12 10 9 10 11 12 13 13 13 14 15 15 14 13 14 14 15 15 15 16 16 16 17 17 17 18 18 18 17 16 16 16 17 17 17 17
30 28 28 28 27 26 25 24 22 20 19 20 21 22 22 21 21 21 20 20 19 18 19 21 23 24 24 24 25 25 24 22 20 19 20 20 20 20 19 18 16 14 13 14 13 12 11 12 13 12 11 10 12 13 13 12 11 11 12 13 14 14 14 14 14 14 15 16 16 16 16 17 18 18 18 18 18 17 16 14 14 14 14 14 15
32 30 29 29 29 29 28 26 24 22 20 21 22 23 23 23 22 22 21 21 21 20 20 22 23 24 25 25 25 25 25 23 22 21 21 22 22 21 20 19 16 14 14 14 14 12 11 12 12 12 12 11 12 12 11 11 10 10 11 11 12 13 14 15 15 14 14 15 16 16 17 17 18 18 18 18 18 17 16 15 13 13 13 13 14
33 32 31 30 30 30 29 28 26 24 22 23 24 24 25 25 24 23 23 22 22 22 22 23 24 25 25 25 25 26 26 25 24 23 23 23 23 22 21 19 17 16 15 16 15 12 11 12 11 11 11 12 12 12 12 12 11 11 12 12 12 13 14 15 16 15 14 14 15 16 17 17 17 17 18 18 18 17 17 16 15 15 15 15 16
35 34 33 32 31 31 31 30 28 26 24 24 25 25 25 26 26 25 25 24 23 23 23 24 25 25 26 26 27 27 27 26 26 25 24 22 23 23 22 20 18 17 17 17 16 14 13 12 11 11 11 12 12 11 12 13 13 13 14 14 14 14 14 16 16 17 16 15 15 16 16 17 17 18 19 20 20 19 19 18 18 18 18 18 18
37 36 35 34 33 32 32 32 30 28 27 26 27 27 26 26 27 27 26 26 25 24 25 26 26 27 27 27 27 28 28 27 27 27 25 24 24 24 23 21 19 18 19 18 16 14 13 12 13 12 11 12 13 12 12 14 15 16 16 16 15 15 16 17 18 19 17 17 16 16 17 17 18 19 20 21 21 21 21 20 20 20 19 19 20
39 38 37 35 35 34 34 34 33 31 30 29 29 30 28 27 26 27 27 27 27 26 26 26 27 28 28 27 27 28 30 30 29 29 28 28 27 27 26 23 21 21 20 18 17 16 15 15 14 13 11 12 13 14 14 16 17 17 18 18 16 16 16 18 19 20 19 18 18 18 18 18 18 18 19 20 20 20 20 20 20 20 21 21 21
40 39 38 38 37 37 37 36 35 33 32 31 31 31 30 29 27 27 28 28 29 28 27 27 29 29 29 28 27 28 30 32 32 31 31 30 30 29 27 25 24 23 21 20 19 18 18 18 16 14 13 13 15 15 16 18 19 19 20 19 18 17 18 19 20 20 20 19 19 20 20 19 19 19 19 20 20 20 20 21 22 23 24 25 24
42 41 40 40 40 40 39 38 37 36 34 33 32 32 31 30 29 28 28 29 30 30 29 29 30 30 30 29 28 28 30 32 33 32 30 29 29 29 26 24 25 24 22 21 20 20 20 20 18 16 15 15 16 17 18 19 21 21 21 21 20 18 19 20 21 21 20 20 20 20 20 20 20 20 20 21 22 23 24 24 25 25 26 26 27
43 43 42 42 41 41 41 39 38 37 36 35 34 33 33 32 30 30 30 30 31 31 30 30 31 31 31 31 30 29 30 31 31 30 28 27 27 28 25 23 24 25 23 22 22 22 22 21 18 17 16 17 19 19 20 21 23 24 23 22 21 20 21 23 24 23 21 20 20 21 22 22 22 22 23 24 25 26 26 26 26 26 26 26 27
45 44 43 42 42 42 42 41 40 39 38 38 37 36 36 34 33 32 31 31 31 32 32 31 31 31 32 32 32 31 30 30 30 29 29 28 27 27 25 23 23 23 23 23 23 23 22 20 18 18 18 20 22 22 22 23 25 25 23 22 22 22 23 24 24 23 22 21 21 22 23 23 24 24 24 25 25 25 26 26 25 25 26 27 28
46 45 44 44 43 43 43 43 42 41 41 41 40 39 38 36 35 33 32 32 31 32 33 33 32 31 32 33 33 32 30 29 29 29 29 30 29 28 26 24 23 23 23 23 22 21 20 19 19 20 21 23 25 25 25 25 25 24 21 20 22 24 25 24 22 21 21 22 22 23 23 23 23 23 22 22 21 21 21 21 21 21 22 23 23
48 46 46 45 44 44 44 44 44 44 44 43 42 41 40 38 36 34 33 32 31 32 34 34 33 32 32 33 34 33 30 29 29 29 29 30 30 28 26 24 25 25 24 23 22 21 21 20 21 22 24 27 27 27 27 27 25 22 21 21 23 24 25 26 24 21 21 22 23 24 24 22 20 20 19 18 17 17 17 17 17 17 17 17 17
48 48 47 46 46 45 45 45 45 45 45 44 43 42 41 39 37 35 34 32 32 33 34 34 33 33 33 33 33 33 31 29 29 30 30 30 29 28 26 26 26 25 24 23 23 22 21 21 22 24 27 30 30 29 29 27 24 21 20 21 23 24 24 26 26 24 22 23 24 25 24 20 19 19 18 17 17 16 16 16 15 15 15 15 16
48 48 47 47 46 45 45 46 46 46 45 44 43 43 41 40 37 35 33 32 32 34 35 33 32 32 33 33 33 34 33 31 30 31 31 29 27 26 26 26 27 26 24 23 22 22 21 21 23 26 29 31 31 30 28 26 23 21 22 22 23 24 25 26 27 27 25 24 24 24 22 20 20 21 20 19 19 18 16 16 16 16 16 17 18
48 48 47 47 46 45 45 45 45 44 43 42 43 43 41 39 37 34 32 32 32 34 35 34 32 31 31 32 33 34 33 33 31 30 30 28 27 28 29 29 31 29 24 22 23 22 20 21 24 27 29 30 31 30 26 23 22 23 24 24 24 25 26 26 27 28 26 22 21 23 24 22 21 21 22 21 20 18 17 18 19 19 20 20 21
49 49 48 47 46 45 44 44 43 42 41 41 41 41 40 37 35 32 31 31 32 34 35 34 33 32 31 32 33 33 33 33 30 29 29 28 28 31 33 34 33 29 23 21 22 21 19 21 25 28 29 30 31 29 23 21 23 24 25 25 25 25 26 26 27 28 24 19 20 25 27 23 20 20 22 23 22 21 20 21 22 22 24 25 26
50 49 47 46 45 44 43 42 42 40 39 39 41 40 38 35 31 30 30 31 31 33 34 34 33 32 32 32 33 31 31 31 29 28 29 29 31 36 36 33 30 28 25 23 20 20 20 23 26 29 30 31 30 26 22 21 23 24 24 24 25 25 26 27 27 27 22 19 21 24 25 22 19 22 25 24 24 24 24 25 27 29 30 31 31
49 48 47 45 44 43 42 42 40 38 38 40 40 39 35 32 29 28 29 30 30 31 33 33 32 31 31 32 32 29 28 29 28 28 30 32 36 36 32 27 24 23 24 25 22 21 22 24 27 29 30 31 28 24 22 22 23 23 23 24 25 25 26 27 27 25 23 22 21 21 22 22 22 23 25 24 25 28 30 31 32 30 26 23 21
49 48 47 45 44 43 42 41 39 38 39 39 39 37 33 30 28 27 27 29 30 30 31 31 31 31 31 31 30 27 26 27 28 29 33 35 34 31 26 23 22 22 24 25 23 22 24 26 28 29 30 29 26 23 22 23 22 23 25 26 26 24 24 26 26 25 24 23 21 20 22 22 22 23 26 28 29 32 33 30 24 19 15 14 13
49 47 46 45 44 43 42 41 39 39 39 38 37 34 31 28 27 26 25 27 28 29 30 31 32 32 31 30 28 26 25 27 28 32 33 30 25 24 26 26 25 25 25 25 23 23 25 26 27 29 28 26 23 23 23 23 24 25 26 24 22 20 21 23 23 23 24 24 23 22 22 24 26 27 29 30 30 30 26 20 14 12 12 13 14
47 46 45 44 44 43 41 41 40 39 38 37 35 32 28 26 25 23 23 25 27 28 29 31 33 32 30 29 28 27 27 28 29 31 29 24 19 18 24 24 23 22 22 23 25 26 26 26 27 27 25 23 23 24 25 25 26 25 22 19 18 17 18 19 19 22 25 26 26 24 24 27 28 28 26 25 27 26 21 16 14 13 14 15 17
Wind_Direction
179 182 196 215 216 208 219 238 273 275 250 262 275 302 312 301 320 306 307 332 83 153 152 122 138 128 103 109 96 96 123 112 131 87 41 84 73 60 62 73 86 121 171 180 178 182 191 196 195 191 190 192 194 194 197 199 200 203 206 207 207 205 205 207 207 207 207 207 207 208 209 209 208 209 209 207 204 204 205 206 208 212 220 223 218
182 198 204 222 234 231 247 250 265 263 249 255 254 257 276 274 269 285 299 138 143 156 159 151 152 140 126 133 78 23 246 187 150 9 283 225 110 83 75 75 86 100 150 182 187 185 191 195 199 200 197 197 198 199 202 204 205 206 208 209 213 214 214 215 215 215 214 215 216 215 216 216 215 215 216 214 212 213 214 217 219 222 227 231 231
191 208 212 225 237 242 250 253 259 256 249 247 243 249 258 272 272 281 266 151 152 160 167 166 161 154 149 159 310 324 224 202 183 63 201 187 165 117 88 81 92 103 132 172 191 191 194 198 200 203 202 202 204 206 208 209 210 211 212 211 213 218 222 223 222 223 222 223 224 224 224 223 223 222 221 219 218 219 220 222 224 227 230 234 238
203 215 221 229 240 246 253 258 257 250 246 244 251 260 251 266 263 251 186 161 164 172 181 177 172 175 187 244 284 169 140 168 175 149 154 157 162 152 129 123 114 111 133 158 184 194 197 200 203 206 206 206 208 212 214 215 215 215 218 217 214 215 221 227 228 228 229 231 232 231 230 229 230 229 229 227 225 225 225 226 227 228 230 233 238
215 225 230 234 242 248 252 254 250 245 245 246 256 257 249 259 243 230 189 173 175 187 199 190 174 209 228 238 237 171 156 168 160 142 148 149 155 159 159 177 182 130 141 155 173 190 197 200 202 205 208 209 212 216 218 221 222 221 223 223 221 220 220 224 228 231 232 236 240 239 238 235 235 235 235 235 234 233 232 231 232 231 232 233 237
225 234 237 240 246 247 246 245 245 245 247 252 255 249 249 251 241 234 201 188 185 187 193 141 117 140 226 199 186 167 164 166 143 124 132 141 146 153 166 183 184 156 144 160 167 181 192 198 202 206 209 212 215 219 220 224 227 228 230 230 228 229 228 227 227 229 231 234 239 242 244 243 242 241 239 240 241 241 240 240 239 238 238 237 238
227 236 241 245 248 246 242 242 246 249 252 256 253 246 249 247 243 229 205 200 193 182 182 152 131 118 129 162 166 160 164 161 130 105 113 139 136 130 136 146 163 158 145 158 167 174 191 198 205 210 212 214 217 221 222 224 228 229 234 236 233 234 236 235 232 232 233 234 238 240 244 246 247 247 245 245 246 247 247 247 247 246 246 244 243
228 233 238 241 243 242 241 243 247 252 254 254 255 252 249 244 239 222 208 206 198 183 186 189 169 144 149 168 171 160 181 190 145 119 139 148 130 115 100 89 109 145 165 183 190 188 195 203 211 216 218 219 219 224 227 230 234 232 234 238 238 237 238 241 240 239 240 241 243 244 246 247 247 248 248 247 247 247 248 249 251 251 251 250 249
233 231 232 235 239 240 243 248 252 256 253 251 252 248 247 246 237 221 207 205 204 191 188 193 193 187 184 187 188 180 246 239 201 164 169 166 140 115 96 86 88 105 160 186 188 182 190 204 214 217 217 218 218 223 228 234 240 240 240 243 243 241 239 243 244 246 247 246 247 248 249 250 250 250 249 248 246 247 246 247 249 251 252 253 252
230 230 229 230 236 240 246 252 256 255 247 245 247 246 252 248 231 215 206 203 201 193 193 197 193 198 197 189 187 199 274 243 195 174 174 176 158 128 109 94 87 88 113 145 156 160 168 185 197 202 207 213 216 219 225 231 238 241 245 247 249 248 245 244 244 247 249 250 251 252 252 252 253 254 253 252 252 252 251 250 249 250 251 252 252
221 226 225 227 234 241 246 250 254 248 238 240 249 255 251 232 213 205 201 200 200 204 217 220 207 205 199 190 196 226 257 231 181 175 178 181 168 145 136 117 94 83 88 99 127 147 158 164 157 162 179 199 209 215 224 231 235 239 245 248 251 253 250 248 247 249 252 253 253 255 256 256 255 255 255 255 254 251 251 252 251 250 251 251 251
227 231 230 231 234 241 246 247 246 237 235 242 250 251 234 215 206 205 207 211 215 216 220 215 206 206 200 195 203 214 225 203 175 170 170 182 188 173 158 145 113 43 56 80 107 122 149 168 158 150 156 173 191 204 216 227 234 237 240 244 250 251 251 252 252 254 258 260 258 258 260 260 258 256 255 254 253 251 251 253 253 252 251 251 252
236 239 239 237 237 244 248 245 240 232 239 247 246 234 216 212 215 223 229 219 205 188 172 179 190 195 196 193 186 176 172 168 167 166 171 185 193 189 177 177 225 311 320 351 96 94 129 165 167 168 169 169 178 188 195 212 231 236 230 230 236 240 249 254 254 256 261 266 268 269 268 267 266 263 259 256 253 253 254 254 255 255 254 254 253
240 243 242 239 239 243 244 244 239 233 240 244 235 222 215 223 235 238 217 182 172 163 158 172 180 186 190 183 174 161 151 160 168 172 184 187 190 191 191 206 255 302 307 319 18 59 104 161 175 181 177 174 181 187 186 191 211 228 226 226 233 242 255 260 260 265 270 271 272 274 275 276 276 273 270 266 260 257 256 255 255 256 256 256 256
241 241 238 238 239 238 236 236 233 233 241 237 225 221 227 239 241 218 182 167 166 167 167 175 178 183 184 177 176 173 164 173 183 186 189 187 187 191 193 197 238 309 284 299 316 24 111 125 137 161 178 182 187 185 185 187 194 212 227 238 247 253 263 267 269 274 278 278 276 274 274 276 276 276 277 277 273 267 263 260 259 258 258 259 260
240 238 235 236 238 234 229 226 226 233 236 230 224 226 235 236 217 190 174 170 169 167 171 178 183 184 181 179 184 187 183 179 170 171 179 183 186 194 196 193 153 224 241 269 291 150 115 87 73 62 54 132 189 188 196 203 205 210 215 221 229 240 254 265 273 279 282 287 288 287 284 281 279 277 277 278 279 277 273 270 268 265 261 261 263
237 237 235 236 236 230 226 222 225 233 231 226 224 227 225 207 192 182 174 174 172 167 168 176 187 193 192 190 189 198 192 161 150 159 172 181 189 197 201 206 175 148 194 168 119 130 107 68 49 29 17 11 264 204 208 213 214 212 209 214 228 250 267 274 280 285 285 287 290 293 294 293 291 288 285 283 282 280 278 277 277 276 272 270 267
234 235 233 231 230 225 224 225 228 230 226 221 218 219 206 181 178 183 181 181 182 173 168 173 185 195 201 199 197 206 189 163 155 162 175 188 192 185 181 202 189 127 132 133 118 108 72 42 24 12 7 4 54 125 160 181 194 185 122 51 27 13 354 331 308 300 298 295 292 290 290 289 289 291 294 295 295 292 287 283 281 281 280 280 277
230 231 229 225 223 221 222 226 226 222 218 216 213 210 194 176 177 186 189 194 194 184 175 177 186 190 194 196 200 206 190 174 167 167 177 189 191 182 176 194 199 167 155 160 173 137 37 23 14 9 10 26 76 87 95 114 126 118 89 54 36 27 12 356 334 317 309 304 300 296 292 289 287 284 285 289 294 299 301 298 293 288 285 282 280
229 227 226 222 219 219 222 224 219 214 213 215 212 201 187 184 186 189 194 201 200 194 185 181 189 190 186 186 194 201 196 189 183 174 173 176 185 188 181 193 206 203 201 200 196 199 10 7 5 1 5 22 53 69 75 83 84 83 71 48 38 29 13 355 338 326 317 313 309 303 299 294 291 287 284 283 284 288 294 299 301 299 296 289 284
227 226 226 224 219 220 222 219 215 212 209 210 206 196 189 190 191 191 197 200 201 204 198 194 201 196 185 184 188 193 196 197 196 189 173 167 180 190 186 195 205 206 216 218 210 258 348 354 350 340 342 350 353 18 40 38 32 29 24 19 11 2 353 344 338 331 325 322 319 314 308 301 295 291 287 284 282 283 285 290 294 296 297 295 291
224 225 226 225 221 219 218 215 213 210 207 205 202 199 199 198 195 196 201 201 203 208 208 208 213 203 190 186 187 191 195 196 199 198 188 174 175 179 178 188 194 192 199 208 213 235 305 316 309 313 320 328 330 340 356 356 353 347 343 342 340 337 332 330 333 331 325 320 318 318 317 312 303 294 289 286 285 285 285 287 289 290 292 291 290
222 222 223 223 222 220 217 213 210 210 212 209 207 209 211 207 200 205 214 214 212 214 213 213 215 208 200 193 190 194 197 198 200 202 202 196 178 170 170 176 183 188 192 198 209 228 271 283 279 292 306 315 318 322 332 337 338 334 331 331 330 328 323 323 327 329 325 317 312 314 319 320 313 303 294 290 288 289 291 291 290 289 288 288 287
221 222 222 221 220 220 218 214 210 211 216 217 216 217 213 207 203 210 222 222 218 217 217 217 213 206 206 202 194 197 200 200 201 203 208 211 198 184 181 182 187 194 196 195 204 227 261 273 271 280 293 301 304 307 315 321 324 326 325 327 327 324 323 323 325 326 322 314 308 307 312 316 315 310 304 297 293 292 293 295 296 294 290 287 287
222 224 223 220 219 220 221 219 216 215 218 218 218 216 212 208 206 210 219 221 217 217 218 220 216 205 203 204 198 197 201 200 201 204 211 217 214 205 199 200 205 206 203 201 209 230 248 256 260 264 271 280 287 293 299 304 309 315 317 321 322 321 321 322 323 322 317 310 304 301 302 304 306 306 304 301 297 293 292 294 296 297 294 289 285
226 227 224 221 220 221 223 224 222 220 220 219 219 219 218 216 214 213 219 222 219 219 218 219 219 209 201 202 198 197 201 204 204 205 212 221 222 221 216 213 216 217 212 213 221 230 235 238 242 247 253 258 267 274 278 285 294 302 307 313 316 316 315 314 315 315 311 305 300 298 297 296 296 296 295 294 293 290 288 288 290 293 294 292 288
231 230 227 224 221 220 222 223 224 223 222 221 220 222 225 224 222 220 220 220 218 219 218 217 218 213 206 204 201 201 206 210 210 209 214 221 225 230 231 225 221 217 215 223 231 233 231 229 229 238 244 241 246 255 258 268 283 296 304 308 311 311 309 308 309 310 310 306 300 296 296 295 294 292 290 289 287 286 284 283 284 285 288 290 289
232 231 229 228 225 221 220 220 223 225 223 223 223 224 227 228 227 223 221 219 215 215 217 217 216 213 211 209 208 210 213 216 219 220 220 224 228 232 236 235 231 226 228 236 239 237 235 231 229 233 234 226 224 233 245 261 280 293 299 299 301 304 305 306 307 308 309 308 304 301 300 300 298 295 293 291 289 286 283 282 281 280 281 283 285
231 230 230 230 227 223 221 220 223 225 225 226 225 225 229 232 232 227 222 220 216 213 216 218 217 215 214 213 214 217 218 220 225 227 227 231 235 236 239 243 244 240 241 242 238 234 233 230 231 234 235 227 220 231 252 268 280 287 288 287 289 294 299 303 305 306 305 303 302 301 302 303 301 297 295 294 293 290 286 283 281 278 276 276 277
230 230 230 231 228 224 221 222 224 227 227 226 225 225 228 232 234 232 227 224 221 215 215 219 219 218 217 216 217 219 221 224 229 233 236 237 240 243 245 248 249 246 242 239 237 232 223 222 230 238 239 235 239 254 266 271 275 278 280 283 286 291 295 298 302 304 302 299 295 292 293 295 295 294 293 294 294 293 290 287 285 281 277 275 276
230 230 230 230 228 225 222 223 226 229 229 226 222 223 226 230 233 232 229 227 226 221 219 221 222 221 221 220 220 220 223 227 231 236 239 240 242 244 247 250 251 247 241 239 239 234 221 218 228 238 240 240 249 260 265 266 270 274 278 283 287 291 294 296 298 298 298 297 295 291 289 288 289 290 291 292 293 294 294 291 287 285 282 280 280
230 231 231 230 228 225 224 225 227 230 231 225 220 221 224 228 230 230 228 228 229 226 222 223 224 223 223 223 221 220 220 224 228 232 237 240 242 243 245 248 247 243 240 240 241 236 225 222 225 230 235 239 245 251 257 264 272 277 283 288 291 294 296 298 300 298 293 291 291 291 290 289 289 290 292 294 295 296 298 294 287 283 283 285 286
230 231 231 230 228 227 227 228 230 233 232 224 220 221 223 226 228 229 228 228 231 230 226 226 226 224 223 223 222 220 219 221 226 232 235 238 240 241 242 241 236 236 236 234 234 229 222 224 225 225 229 236 240 244 256 270 278 283 289 294 296 297 298 301 302 300 295 287 282 283 285 287 289 291 294 296 296 296 296 294 289 284 284 285 285
231 232 232 230 228 228 229 230 232 234 233 226 222 222 224 225 227 229 229 228 229 231 230 228 228 227 225 223 223 225 225 226 229 232 233 233 236 240 240 236 231 233 232 229 231 229 223 222 225 228 231 239 248 256 269 280 287 289 291 296 300 302 305 305 303 302 299 292 286 282 281 283 286 288 290 292 293 292 290 289 288 286 286 286 285
231 232 232 231 230 230 230 231 233 234 233 228 225 225 227 227 228 230 231 230 230 231 232 231 229 230 228 225 225 227 231 233 233 233 234 234 237 241 240 236 233 234 233 232 235 236 233 228 228 235 242 252 267 278 284 288 293 293 293 295 299 303 307 307 304 303 302 299 295 291 287 288 289 289 288 287 287 286 285 284 284 284 284 285 285
231 232 233 232 232 232 233 234 234 234 233 231 229 228 230 231 231 233 234 234 233 233 234 234 233 232 231 230 228 228 231 236 236 236 236 237 239 243 242 239 235 234 234 235 237 241 247 245 239 245 259 269 280 289 292 292 293 293 293 294 295 299 303 303 300 299 300 300 297 294 292 293 295 294 291 288 285 282 280 279 280 282 284 284 284
231 232 232 231 231 233 235 237 237 236 236 235 234 233 233 235 235 236 237 237 236 236 236 236 237 237 235 234 233 230 231 235 237 238 238 239 240 241 240 237 233 232 234 236 238 242 252 257 254 258 270 278 287 296 297 294 292 291 291 292 293 295 298 298 296 295 296 296 294 293 292 291 291 291 289 287 285 281 279 279 280 283 283 282 281
232 232 233 233 232 233 235 238 239 240 240 239 239 239 239 239 239 239 240 240 238 237 236 237 238 239 238 237 235 233 233 236 237 237 237 238 238 237 236 233 230 232 235 235 236 242 252 257 258 264 276 284 292 298 301 298 293 290 290 292 292 294 297 298 297 295 295 294 294 293 290 288 288 288 287 285 283 282 281 282 283 283 281 279 278
232 233 234 234 234 235 237 239 241 242 242 242 243 244 244 244 244 243 242 242 241 238 237 237 238 239 239 238 236 235 236 238 240 240 240 240 238 236 236 233 232 235 238 238 240 245 249 251 257 270 282 289 291 296 301 301 295 291 292 293 293 296 299 299 299 299 299 298 298 294 290 289 290 289 287 284 282 281 282 283 284 284 282 280 278
232 234 235 236 236 237 238 240 242 243 243 244 245 245 245 246 246 246 245 245 244 241 239 238 238 239 240 239 237 237 237 240 245 247 247 249 246 240 236 234 234 238 242 243 242 244 245 249 260 274 284 290 292 294 298 299 296 294 294 292 293 296 299 299 299 301 302 303 301 296 291 289 289 288 286 284 282 282 283 284 285 285 283 281 279
233 234 235 236 237 239 240 241 242 243 244 245 246 247 247 247 248 248 247 248 248 246 243 241 239 240 241 241 240 239 239 241 246 250 252 254 249 240 236 236 238 242 246 246 244 246 248 254 266 276 283 290 293 294 296 297 297 295 290 288 291 295 297 296 297 299 301 304 302 296 291 289 290 292 291 290 289 289 288 288 287 287 286 283 281
233 233 234 235 237 239 241 242 242 243 245 247 248 249 249 250 250 251 250 251 252 251 247 244 243 242 242 243 243 243 242 243 247 252 255 253 245 238 238 242 244 246 248 248 250 253 255 260 270 278 284 289 293 295 295 296 296 291 286 287 290 292 293 294 296 297 297 302 303 296 290 290 295 299 299 298 298 296 293 290 287 287 287 285 283
232 232 233 234 237 239 241 242 243 245 247 249 251 251 251 251 252 252 253 254 256 256 252 249 247 246 246 247 247 247 246 245 248 252 254 249 241 237 240 244 247 249 250 253 256 257 260 269 276 280 284 289 293 296 296 295 294 289 286 287 288 288 290 293 296 297 299 304 306 297 290 293 300 302 302 303 303 299 295 290 285 284 285 286 285
231 232 233 235 237 239 240 242 244 246 249 252 253 252 252 252 252 253 255 256 257 258 257 255 252 250 251 252 251 249 249 248 249 252 251 246 240 239 242 246 248 247 247 253 257 257 262 272 277 279 284 290 294 296 295 293 290 287 286 287 287 287 289 291 293 296 302 307 305 297 292 294 300 302 303 304 303 301 296 289 281 278 278 279 281
231 232 234 236 238 239 241 242 245 248 251 253 253 253 252 252 253 254 256 257 258 259 259 259 256 254 256 259 257 252 251 250 250 252 253 249 246 246 246 245 245 243 241 245 251 256 266 274 276 279 284 290 293 294 293 289 285 285 286 287 289 289 289 289 290 295 302 304 299 296 295 295 298 300 300 301 301 302 301 296 289 286 283 282 282
230 232 235 237 238 240 242 244 247 249 252 254 254 253 252 252 253 254 256 257 257 259 260 260 259 256 258 264 263 257 253 252 252 255 256 252 248 246 243 242 245 245 239 240 248 260 272 276 277 281 286 290 292 293 289 283 282 284 287 289 291 290 288 288 290 294 297 298 298 299 298 296 296 297 297 299 301 301 302 298 293 290 288 286 284
230 233 235 236 238 240 242 244 247 250 253 254 254 253 252 252 253 254 254 254 255 258 259 260 259 258 258 264 267 263 257 256 255 256 255 250 245 244 243 243 246 245 239 239 250 264 272 274 278 283 286 288 290 289 284 279 281 286 289 290 289 289 288 288 290 291 291 291 296 299 298 297 297 297 297 299 299 299 298 293 289 290 289 288 286
230 232 234 236 238 240 241 243 245 249 252 253 253 252 252 253 253 251 250 251 253 255 258 259 260 259 259 262 265 263 258 255 254 253 253 250 246 244 241 240 246 246 242 243 252 264 271 276 281 283 285 288 288 284 282 283 286 289 290 289 289 290 291 291 290 289 288 288 290 292 295 299 301 299 296 294 292 292 292 292 292 294 292 288 286
229 231 234 236 238 239 241 242 245 249 251 252 253 253 253 253 251 248 248 249 250 252 256 259 260 259 259 260 262 260 255 252 253 253 252 251 249 242 234 235 243 248 248 248 253 262 270 277 281 282 285 288 286 284 286 287 288 290 291 290 290 290 290 291 292 291 289 290 291 294 298 301 301 298 293 292 291 292 294 297 299 297 289 285 287
231 233 235 236 238 240 242 244 247 249 250 253 254 255 255 254 250 248 247 248 248 250 253 256 257 256 257 257 256 253 250 249 252 253 256 264 268 252 236 231 235 242 251 257 258 261 268 276 281 283 285 286 285 286 287 285 287 290 289 287 287 288 289 290 293 294 294 295 297 301 301 301 300 298 296 297 297 296 300 307 307 294 286 291 297
233 234 235 235 237 240 242 245 246 247 250 253 255 256 257 254 250 247 246 246 247 249 251 254 254 254 254 254 252 250 249 250 253 258 264 279 289 259 232 228 235 247 260 263 259 259 267 277 283 284 283 282 283 284 283 284 287 286 280 279 286 292 294 295 297 300 299 299 301 304 303 301 300 300 302 307 307 305 309 317 312 298 293 297 302